Preview of NWS' New Version of Forecast
This preview is not operational and should not be used for support decisions.

Regional Weather Roundup (RWR)

Issued by National Weather Service (NWS)

                            
000
ASUS43 KLSX 221457
RWRMO 

WEATHER SUMMARY FOR MISSOURI
NATIONAL WEATHER SERVICE SPRINGFIELD MO
1000 AM CDT WED MAY 22 2019

NOTE: "FAIR" INDICATES FEW OR NO CLOUDS BELOW 12,000 FEET WITH NO
       SIGNIFICANT WEATHER AND/OR OBSTRUCTIONS TO VISIBILITY.
       CURRENT SKY AND/OR WEATHER CONDITIONS ARE NOT AVAILABLE FOR
       CHILLICOTHE AND FARMINGTON.

MOZ001>031-035>038-043-044-053-054-221600-
...NORTHERN AND WESTERN MISSOURI...
  
CITY           SKY/WX    TMP DP  RH WIND       PRES   REMARKS
KANSAS CTY INT MOSUNNY   62  49  62 SW14      29.72R                  
LEE'S SUMMIT   SUNNY     64  52  64 SW15G24   29.74R                  
ST JOSEPH      SUNNY     58  48  69 S16       29.71R                  
CHILLICOTHE      N/A     66  56  70 S14G23    29.72R                  
     
$$
MOZ066>068-077>081-088>096-101>105-221600-
...SOUTHWEST MISSOURI...
  
CITY           SKY/WX    TMP DP  RH WIND       PRES   REMARKS
SPRINGFIELD    SUNNY     70  54  56 S18G26    29.81R                  
JOPLIN         CLOUDY    67  57  70 S10       29.80R                  
BRANSON        PTSUNNY   73  59  60 S6        29.86R                  
               
$$
MOZ032>034-039>042-045>050-055>058-069>072-221600-
...CENTRAL MISSOURI...  
  
CITY           SKY/WX    TMP DP  RH WIND       PRES   REMARKS
COLUMBIA       NOT AVBL                                               
JEFFERSON CITY CLOUDY    70  53  54 S9        29.79R                  
SEDALIA        SUNNY     66  54  65 SW15G32   29.78R                  
WARRENSBURG    SUNNY     66  55  68 S17       29.74R                  
               
$$
MOZ051-052-059>065-221600-
...EAST CENTRAL MISSOURI...
  
CITY           SKY/WX    TMP DP  RH WIND       PRES   REMARKS
ST LOUIS INTL  CLOUDY    73  57  57 S16G23    29.85R                  
                   
$$
MOZ072>076-082>087-097>100-106>115-221600-
...SOUTH CENTRAL AND SOUTHEAST MISSOURI...
  
CITY           SKY/WX    TMP DP  RH WIND       PRES   REMARKS
CAPE GIRARDEAU CLOUDY    69  65  86 S7        29.94R                  
POPLAR BLUFF   PTSUNNY   70  67  90 S7        29.92R                  
WEST PLAINS    SUNNY     68  58  70 S10       29.91R                  
                                       
$$